178  
ASUS42 KRAH 160510  
RWRRAH  
NORTH CAROLINA WEATHER ROUNDUP  
NATIONAL WEATHER SERVICE RALEIGH NC  
1200 AM EST WED JAN 16 2019  
 
NOTE: "FAIR" INDICATES FEW OR NO CLOUDS BELOW 12,000 FEET WITH NO  
SIGNIFICANT WEATHER AND/OR S TO VISIBILITY
.  
 
NCZ001-053-055-056-065-067-160600-  
WESTERN NORTH CAROLINA  
 
CITY SKY/WX TMP DP RH WIND PRES REMARKS
 
ASHEVILLE FAIR 29 25 85 N9 30.18F WCI 20  
JEFFERSON FAIR 26 22 85 CALM 30.12S  
HICKORY FAIR 33 25 72 NW5 30.18S WCI 29  
RUTHERFORDTON FAIR 32 28 86 N3 30.20F  
MOUNT AIRY FAIR 29 26 88 CALM 30.19F  
BOONE FAIR 26 22 85 W13 30.14S WCI 15  

 
 
NCZ021-022-025-041-071-084-088-160600-  
CENTRAL NORTH CAROLINA  
 
CITY SKY/WX TMP DP RH WIND PRES REMARKS
 
CHARLOTTE FAIR 36 33 89 SE3 30.21F  
GREENSBORO FAIR 30 27 88 CALM 30.18S  
WINSTON-SALEM FAIR 29 26 89 CALM 30.20S  
RALEIGH-DURHAM FAIR 29 28 96 CALM 30.20S  
FORT BRAGG FAIR 31 31 99 CALM 30.20S  
FAYETTEVILLE FAIR 34 32 92 SW5 30.21S FOG WCI 30  
BURLINGTON FAIR 31 28 89 CALM 30.19S  
LAURINBURG FOG 36 34 92 CALM 30.23R VSB 1/4  

 
 
NCZ011-015-027-028-043-044-047-080-103-160600-  
NORTHEASTERN NORTH CAROLINA  
 
CITY SKY/WX TMP DP RH WIND PRES REMARKS
 
ROCKY MT-WILSO FAIR 29 29 100 CALM 30.21S FOG  
GREENVILLE N/A 30 30 100 CALM 30.22S FOG  
WASHINGTON FAIR 29 28 94 CALM 30.22S  
ELIZABETH CITY FAIR 31 27 85 CALM 30.20F  
MANTEO FAIR 29 29 99 CALM 30.21F  
CAPE HATTERAS FAIR 36 30 79 N3 30.21F  

 
 
NCZ078-087-090-091-093-098-101-160600-  
SOUTHEASTERN NORTH CAROLINA  
 
CITY SKY/WX TMP DP RH WIND PRES REMARKS
 
LUMBERTON FAIR 38 35 89 CALM 30.22S FOG  
GOLDSBORO FAIR 29 27 89 CALM 30.19F  
KINSTON FAIR 29 28 99 CALM 30.22S FOG  
KENANSVILLE FAIR 27 27 100 CALM 30.23R FOG  
NEW BERN FAIR 30 28 92 CALM 30.23F FOG  
CHERRY POINT FAIR 31 30 96 CALM 30.22F  
BEAUFORT FAIR 31 27 85 CALM 30.22F  
JACKSONVILLE FAIR 29 27 92 CALM 30.22F  
WILMINGTON FAIR 31 29 92 CALM 30.23F FOG  

 
 
 
 
CLICK HERE TO GO TO PREVIOUS BULLETINS.

The Nexlab NC Page Main Text Page